Location: Del Amo
(33.8464°N, 118.2104°W)
Time: 16:22:59
(UTC+00:00)

Transit 2A Rocket - Pass Details

Date: 22 September 2024
Orbit: 582 x 908 km, 66.7° (Epoch: 09 October)

Event Time Altitude Azimuth Distance (km) Brightness Sun altitude
Rises 13:02:38 0° 353° (N) 3,448 8.4 -8.9°
Reaches altitude 10° 13:07:19 10° 26° (NNE) 2,431 8.1 -7.9°
Maximum altitude 13:08:59 11° 44° (NE) 2,311 8.3 -7.6°
Drops below altitude 10° 13:10:36 10° 61° (ENE) 2,366 8.8 -7.2°
Sets 13:14:56 0° 96° (E) 3,195 10.4 -6.3°
